Location: Great Snoring
(52.8667°N, 0.8833°E)
Time: 20:42:15
(UTC+00:00)

NOSS 2-1 (D) - Pass Details

Date: 19 May 2025
Orbit: 378 x 1697 km, 63.3° (Epoch: 18 June)

Event Time Altitude Azimuth Distance (km) Brightness Sun altitude
Exits shadow 22:35:15 29° 122° (ESE) 782 3.7 -15.2°
Drops below altitude 10° 22:37:46 10° 65° (ENE) 1,417 5.5 -15.3°
Sets 22:39:50 0° 54° (NE) 2,258 6.7 -15.4°
